Weather History for KADC - June, 2014

Change the Weather History Date:

Thursday, June 12, 2014

  Actual Average Record
Temperature  
Mean Temperature 54 °F -  
Max Temperature 62 °F 74 °F 93 °F (1956)
Min Temperature 46 °F 52 °F 38 °F (1947)
Degree Days  
Heating Degree Days 11    
Growing Degree Days 4 (Base 50)    
Moisture  
Dew Point 45 °F    
Average Humidity 76    
Maximum Humidity 94    
Minimum Humidity 45    
Precipitation  
Precipitation 0.01 in - - ()
Sea Level Pressure  
Sea Level Pressure 29.87 in    
Wind  
Wind Speed 16 mph (NW)    
Max Wind Speed 28 mph    
Max Gust Speed 40 mph    
Visibility 10 miles    
Events Rain    
Averages and records for this station are not official NWS values.
T = Trace of Precipitation, MM = Missing Value Source: NWS Daily Summary

Daily Weather History Graph

Daily Weather History Graph

Search for Another Location

Airport or City:

Trip Planner

Search our weather history database for the weather conditions in past years. The results will help you decide how hot, cold, wet, or windy it might be!

Date:

Astronomy

Jun. 12, 2014 Rise Set
Actual Time 5:27 AM CDT 9:13 PM CDT
Civil Twilight 4:48 AM CDT 9:52 PM CDT
Nautical Twilight 3:56 AM CDT 10:45 PM CDT
Astronomical Twilight 2:42 AM CDT 12:00 AM CDT
Moon 8:42 PM CDT (6/12) 5:14 AM CDT (6/12)
Length of Visible Light 17h 03m
Length of Day
15h 46m
Full, 100% of the Moon is Illuminated
Jun 12
Full
Jun 12
Full
Jun 19
Last Quarter
Jun 27
New
Jul 5
First Quarter

Hourly Weather History & Observations

Time (CDT) Temp. Windchill Dew Point Humidity Pressure Visibility Wind Dir Wind Speed Gust Speed Precip Events Conditions
12:15 AM 55.4 °F - 53.6 °F 94% 29.67 in 10.0 mi NW 16.1 mph - 0.01 in   Mostly Cloudy
12:35 AM 53.6 °F - 51.8 °F 94% 29.70 in 10.0 mi WNW 10.4 mph 19.6 mph 0.01 in   Mostly Cloudy
12:53 AM 53.6 °F - 51.8 °F 94% 29.69 in 10.0 mi WNW 19.6 mph 26.5 mph 0.01 in   Overcast
1:14 AM 53.6 °F - 51.8 °F 94% 29.70 in 10.0 mi NW 21.9 mph 27.6 mph N/A   Overcast
1:34 AM 53.6 °F - 50.0 °F 88% 29.70 in 10.0 mi NW 19.6 mph 29.9 mph N/A   Overcast
1:53 AM 53.6 °F - 48.2 °F 82% 29.70 in 10.0 mi NW 27.6 mph 40.3 mph N/A   Overcast
2:15 AM 53.6 °F - 46.4 °F 77% 29.72 in 10.0 mi NW 23.0 mph 31.1 mph N/A   Overcast
2:35 AM 51.8 °F - 48.2 °F 88% 29.73 in 10.0 mi NW 18.4 mph 26.5 mph N/A Rain Light Rain
2:53 AM 51.8 °F - 48.2 °F 88% 29.74 in 10.0 mi NW 15.0 mph 28.8 mph N/A Rain Rain
3:15 AM 51.8 °F - 46.4 °F 82% 29.75 in 10.0 mi NW 13.8 mph - N/A Rain Light Rain
3:35 AM 51.8 °F - 46.4 °F 82% 29.76 in 10.0 mi NW 13.8 mph 20.7 mph N/A Rain Light Rain
3:52 AM 51.8 °F - 46.4 °F 82% 29.76 in 10.0 mi WNW 12.7 mph 18.4 mph N/A   Drizzle
4:15 AM 50.0 °F - 46.4 °F 87% 29.78 in 10.0 mi WNW 13.8 mph 25.3 mph N/A Rain Light Rain
4:35 AM 48.2 °F - 46.4 °F 93% 29.79 in 10.0 mi WNW 15.0 mph 26.5 mph N/A   Drizzle
4:52 AM 48.2 °F - 46.4 °F 93% 29.79 in 10.0 mi NW 16.1 mph 21.9 mph N/A   Drizzle
5:15 AM 48.2 °F - 46.4 °F 93% 29.79 in 10.0 mi NW 13.8 mph 27.6 mph N/A Rain Light Rain
5:35 AM 48.2 °F - 46.4 °F 93% 29.80 in 10.0 mi WNW 16.1 mph 19.6 mph N/A   Light Drizzle
5:52 AM 48.2 °F - 46.4 °F 93% 29.80 in 10.0 mi WNW 18.4 mph 23.0 mph N/A   Light Drizzle
6:15 AM 48.2 °F - 46.4 °F 93% 29.81 in 7.0 mi WNW 15.0 mph 20.7 mph N/A   Light Drizzle
6:35 AM 48.2 °F - 44.6 °F 87% 29.80 in 10.0 mi WNW 19.6 mph 29.9 mph N/A   Overcast
6:53 AM 48.2 °F - 44.6 °F 87% 29.81 in 10.0 mi NW 23.0 mph 29.9 mph N/A   Overcast
7:14 AM 48.2 °F - 44.6 °F 87% 29.82 in 10.0 mi NW 24.2 mph 32.2 mph N/A   Overcast
7:35 AM 48.2 °F - 44.6 °F 87% 29.83 in 10.0 mi WNW 18.4 mph 26.5 mph N/A   Overcast
7:53 AM 48.2 °F - 44.6 °F 87% 29.84 in 10.0 mi NW 17.3 mph 26.5 mph N/A   Overcast
8:14 AM 46.4 °F 39.0 °F 44.6 °F 93% 29.84 in 10.0 mi WNW 19.6 mph 27.6 mph N/A   Overcast
8:35 AM 48.2 °F - 44.6 °F 87% 29.86 in 10.0 mi WNW 16.1 mph 23.0 mph N/A   Overcast
8:53 AM 48.2 °F - 44.6 °F 87% 29.87 in 10.0 mi WNW 19.6 mph 24.2 mph N/A   Overcast
9:35 AM 48.2 °F - 44.6 °F 87% 29.88 in 10.0 mi WNW 15.0 mph 25.3 mph N/A   Overcast
9:53 AM 48.2 °F - 44.6 °F 87% 29.88 in 10.0 mi WNW 12.7 mph 25.3 mph N/A   Overcast
10:15 AM 48.2 °F - 44.6 °F 87% 29.89 in 10.0 mi WNW 10.4 mph 18.4 mph N/A   Overcast
10:35 AM 48.2 °F - 44.6 °F 87% 29.89 in 10.0 mi WNW 19.6 mph 26.5 mph N/A   Overcast
10:53 AM 50.0 °F - 44.6 °F 82% 29.89 in 10.0 mi WNW 20.7 mph 27.6 mph N/A   Overcast
11:14 AM 50.0 °F - 44.6 °F 82% 29.90 in 10.0 mi WNW 16.1 mph 27.6 mph N/A   Overcast
11:35 AM 50.0 °F - 44.6 °F 82% 29.90 in 10.0 mi WNW 17.3 mph 23.0 mph N/A   Overcast
11:53 AM 50.0 °F - 44.6 °F 82% 29.91 in 10.0 mi WNW 16.1 mph 26.5 mph N/A   Overcast
12:15 PM 50.0 °F - 44.6 °F 82% 29.92 in 10.0 mi NW 19.6 mph 29.9 mph N/A   Overcast
12:35 PM 50.0 °F - 44.6 °F 82% 29.92 in 10.0 mi NW 21.9 mph 31.1 mph N/A   Overcast
12:53 PM 50.0 °F - 42.8 °F 76% 29.93 in 10.0 mi WNW 23.0 mph 26.5 mph N/A   Overcast
1:14 PM 51.8 °F - 44.6 °F 76% 29.93 in 10.0 mi WNW 20.7 mph 27.6 mph N/A   Overcast
1:35 PM 51.8 °F - 44.6 °F 76% 29.93 in 10.0 mi WNW 20.7 mph 27.6 mph N/A   Overcast
1:52 PM 51.8 °F - 44.6 °F 76% 29.93 in 10.0 mi NW 24.2 mph - N/A   Overcast
2:15 PM 53.6 °F - 46.4 °F 77% 29.93 in 10.0 mi NW 19.6 mph 25.3 mph N/A   Mostly Cloudy
2:35 PM 55.4 °F - 46.4 °F 72% 29.93 in 10.0 mi NW 16.1 mph 25.3 mph N/A   Mostly Cloudy
2:53 PM 57.2 °F - 46.4 °F 67% 29.93 in 10.0 mi NW 15.0 mph 27.6 mph N/A   Scattered Clouds
3:15 PM 59.0 °F - 46.4 °F 63% 29.93 in 10.0 mi NW 20.7 mph 28.8 mph N/A   Scattered Clouds
3:35 PM 60.8 °F - 46.4 °F 59% 29.93 in 10.0 mi NW 18.4 mph 31.1 mph N/A   Scattered Clouds
4:15 PM 60.8 °F - 46.4 °F 59% 29.93 in 10.0 mi NNW 20.7 mph 26.5 mph N/A   Scattered Clouds
4:35 PM 62.6 °F - 46.4 °F 55% 29.92 in 10.0 mi NNW 16.1 mph - N/A   Scattered Clouds
4:53 PM 62.6 °F - 46.4 °F 55% 29.93 in 10.0 mi NW 16.1 mph 24.2 mph N/A   Scattered Clouds
5:15 PM 62.6 °F - 44.6 °F 52% 29.93 in 10.0 mi NW 19.6 mph 25.3 mph N/A   Clear
5:34 PM 62.6 °F - 44.6 °F 52% 29.93 in 10.0 mi NW 15.0 mph 21.9 mph N/A   Clear
5:53 PM 62.6 °F - 42.8 °F 48% 29.93 in 10.0 mi NW 19.6 mph 26.5 mph N/A   Clear
6:15 PM 62.6 °F - 42.8 °F 48% 29.94 in 10.0 mi NW 16.1 mph 23.0 mph N/A   Clear
6:34 PM 62.6 °F - 41.0 °F 45% 29.94 in 10.0 mi NNW 19.6 mph 28.8 mph N/A   Clear
6:53 PM 62.6 °F - 41.0 °F 45% 29.95 in 10.0 mi NW 17.3 mph 21.9 mph N/A   Clear
7:15 PM 62.6 °F - 42.8 °F 48% 29.95 in 10.0 mi NNW 10.4 mph 17.3 mph N/A   Clear
7:35 PM 62.6 °F - 41.0 °F 45% 29.96 in 10.0 mi NW 13.8 mph - N/A   Clear
7:53 PM 60.8 °F - 41.0 °F 48% 29.96 in 10.0 mi NNW 9.2 mph - N/A   Clear
8:14 PM 60.8 °F - 42.8 °F 52% 29.96 in 10.0 mi NW 8.1 mph 16.1 mph N/A   Clear
8:35 PM 59.0 °F - 42.8 °F 55% 29.96 in 10.0 mi NW 8.1 mph - N/A   Clear
8:52 PM 57.2 °F - 42.8 °F 59% 29.97 in 10.0 mi NW 5.8 mph - N/A   Clear
9:15 PM 55.4 °F - 42.8 °F 63% 29.97 in 10.0 mi NW 4.6 mph - N/A   Clear
9:35 PM 55.4 °F - 42.8 °F 63% 29.98 in 10.0 mi WNW 4.6 mph - N/A   Clear
9:52 PM 55.4 °F - 42.8 °F 63% 29.98 in 10.0 mi Calm Calm - N/A   Clear
10:35 PM 50.0 °F - 44.6 °F 82% 29.99 in 10.0 mi West 3.5 mph - N/A   Clear
10:52 PM 50.0 °F - 42.8 °F 76% 29.99 in 10.0 mi West 3.5 mph - N/A   Clear
11:15 PM 50.0 °F - 42.8 °F 76% 29.99 in 10.0 mi West 3.5 mph - N/A   Clear
11:35 PM 48.2 °F - 42.8 °F 82% 29.99 in 10.0 mi West 4.6 mph - N/A   Clear
11:53 PM 48.2 °F - 42.8 °F 82% 29.99 in 10.0 mi Calm Calm - N/A   Clear